Theta_e
315 316 316 316 318 320 317 314 312 312 316 318 319 322 322 320 319 319 321 319 321 320 319 319 323 324 325 325 330 328 330 334 336 331 328 325 328 325 324 327 327 329 332 331 336
314 314 315 315 315 316 319 317 314 311 310 316 318 320 322 320 319 321 321 321 320 320 319 321 321 323 321 324 328 329 331 334 328 327 326 326 326 325 326 326 330 331 334 335 335
312 313 314 314 315 314 318 319 317 314 310 313 318 319 322 320 322 322 322 321 321 319 318 323 324 323 324 321 327 329 332 331 328 327 325 326 325 324 325 326 326 331 334 334 333
311 311 311 312 313 314 314 317 319 316 312 311 317 318 322 320 318 319 319 321 322 321 319 322 323 322 323 322 321 327 325 326 329 324 325 326 323 325 324 325 324 325 333 333 333
309 310 310 311 311 311 312 313 319 318 314 311 315 318 321 322 323 319 318 318 322 320 323 322 322 321 322 320 320 323 323 325 326 326 326 325 325 325 324 323 321 328 331 332 332
307 308 310 310 310 310 311 311 314 319 317 312 313 317 320 323 319 320 320 319 321 320 323 321 321 321 321 321 320 320 322 324 323 327 328 328 327 328 325 323 324 324 329 330 332
307 307 307 308 309 309 310 311 312 315 318 314 311 317 319 318 320 320 320 320 321 322 322 322 322 324 321 323 323 324 325 324 324 324 329 326 328 330 326 325 326 322 319 323 330
306 306 306 306 308 308 308 310 311 313 319 317 311 316 317 316 320 321 321 322 322 322 323 323 326 325 325 322 324 324 323 326 322 321 326 325 326 323 322 324 325 325 320 318 319
305 305 305 305 306 307 308 309 311 312 318 317 314 315 315 314 317 319 322 322 323 323 323 325 325 325 325 323 324 325 321 323 320 317 320 325 327 325 321 320 318 320 323 322 321
305 304 304 304 305 306 307 308 310 314 314 318 314 315 312 316 316 318 322 322 322 322 323 324 323 323 322 322 324 325 324 320 317 317 315 323 326 323 321 319 318 317 320 322 322
304 304 303 303 304 305 307 309 313 315 315 319 315 310 311 314 316 320 321 322 321 322 323 323 323 325 322 321 317 317 320 320 319 317 320 322 321 320 319 318 316 315 315 319 319
303 304 304 303 303 304 306 309 311 314 316 314 313 310 311 315 319 320 321 322 323 323 321 324 324 320 320 321 322 320 320 319 319 318 320 320 320 320 320 320 317 316 315 314 316
303 303 304 303 302 303 306 307 310 312 314 314 315 313 311 315 317 319 320 320 322 323 322 321 320 320 321 322 323 322 322 321 321 319 318 321 320 320 319 319 319 318 315 315 315
302 303 303 303 305 304 306 304 306 311 315 314 316 313 311 315 317 317 319 319 320 322 322 321 319 321 322 323 322 324 319 320 321 322 322 318 321 318 317 316 317 317 316 316 315
302 302 303 303 303 304 304 304 305 309 314 313 314 311 311 316 316 317 319 318 321 320 320 321 320 319 322 322 320 322 319 319 320 321 321 321 320 316 316 316 314 313 313 314 316
301 302 302 303 303 302 303 304 306 311 314 315 312 314 314 312 316 317 320 317 317 319 318 318 317 318 319 319 319 317 318 319 319 318 321 319 319 316 314 314 313 312 314 314 314
301 301 302 302 303 303 303 306 308 310 310 313 313 314 314 314 315 318 320 320 320 321 322 316 319 316 316 318 318 320 320 322 323 323 320 315 319 316 312 312 311 312 312 313 312
302 301 300 301 302 303 304 307 308 307 310 311 313 313 315 314 315 317 320 320 319 316 317 322 322 318 317 318 320 322 320 316 316 319 315 312 317 314 311 312 313 311 311 311 309
301 301 301 301 302 303 305 306 308 307 308 312 312 315 315 315 315 316 319 319 318 317 318 319 317 315 317 317 318 320 322 315 314 301 311 312 312 311 312 311 311 312 311 309 308
301 300 300 301 302 302 304 307 305 308 308 311 313 314 315 315 315 316 315 317 318 317 313 316 317 316 316 316 316 320 317 321 319 316 312 313 312 312 312 311 310 309 310 308 308
300 300 299 301 301 302 304 303 306 306 309 310 311 314 314 315 314 315 315 316 315 316 315 313 314 317 316 318 319 319 321 318 317 314 316 313 310 308 311 308 309 309 309 308 308
298 296 299 300 301 301 303 304 304 305 308 310 310 309 313 314 315 315 314 315 314 315 318 316 316 318 319 311 311 317 318 318 318 317 315 313 313 308 307 307 307 308 309 308 308
297 298 300 300 300 302 302 302 304 305 306 310 312 311 311 314 315 315 313 312 313 314 317 316 316 316 318 315 313 318 317 317 317 313 316 317 315 311 309 308 304 309 308 307 305
299 299 301 300 298 300 300 301 303 304 305 306 309 310 312 313 312 315 314 312 312 314 314 315 315 315 315 315 316 318 318 317 318 319 317 315 314 311 308 306 306 306 307 305 304
298 297 296 300 299 298 300 302 301 304 304 305 306 310 312 313 314 311 312 314 313 314 313 313 317 313 313 308 313 315 316 317 319 318 318 315 314 313 312 307 305 305 303 303 304
298 296 299 299 298 298 299 299 300 302 303 303 307 307 309 310 313 312 313 313 315 313 314 313 316 314 309 308 308 312 312 314 316 317 316 315 314 312 311 307 304 303 304 305 304
298 299 296 300 300 299 299 299 302 301 303 304 304 305 309 308 308 309 311 310 311 314 315 314 315 315 318 309 307 312 311 312 313 314 315 317 315 314 311 308 306 303 305 306 305
Wind_Speed
17 15 13 13 15 21 18 16 17 16 15 12 9 7 6 6 7 7 6 6 7 11 15 14 8 8 6 2 1 2 3 3 5 7 3 1 3 3 2 6 4 3 2 8 29
16 16 16 15 14 15 20 17 16 15 16 14 10 8 7 5 7 10 11 10 14 5 4 3 6 13 3 3 1 3 3 1 4 2 4 2 3 4 3 4 3 6 9 23 27
16 16 16 15 14 15 16 20 17 15 14 15 11 9 7 3 3 6 8 20 16 10 9 3 4 3 0 2 3 3 5 3 2 3 4 5 3 3 5 2 4 8 11 15 19
19 18 19 17 17 14 15 16 20 18 15 14 13 10 8 7 6 1 3 7 19 14 8 5 2 1 3 4 4 1 3 1 2 3 4 3 6 4 2 3 1 11 18 16 14
20 20 20 19 18 18 16 15 19 20 17 14 15 12 10 4 6 1 6 3 11 12 10 4 4 4 4 3 2 2 2 3 4 3 2 3 4 3 7 5 5 13 13 11 14
20 20 21 20 20 18 17 15 15 20 18 16 17 15 6 10 12 9 8 5 6 11 8 7 3 4 3 5 4 3 1 4 2 3 2 2 3 3 6 7 1 9 10 10 15
21 21 20 23 22 19 18 17 16 14 21 18 18 17 7 13 4 13 11 5 4 9 2 9 5 0 1 1 3 2 3 4 3 3 5 4 5 9 7 8 7 7 9 11 17
25 24 22 20 21 21 19 17 16 15 22 20 17 17 6 20 12 5 10 7 9 7 7 4 3 1 0 2 3 4 4 3 5 5 5 8 9 9 6 8 11 11 9 9 11
26 27 26 23 21 19 20 17 16 17 20 21 13 10 6 16 16 18 13 12 13 8 3 6 4 1 2 5 3 1 3 5 5 9 6 8 7 7 6 7 8 9 10 9 9
27 27 28 25 23 19 18 15 13 13 16 25 10 5 9 7 15 25 15 18 7 8 4 3 3 3 2 3 7 6 4 5 5 3 7 7 9 8 6 5 8 8 9 8 8
29 27 28 27 24 21 17 7 5 4 11 5 10 3 4 22 25 24 23 18 6 4 7 5 5 15 10 7 5 5 5 7 3 9 8 9 7 11 4 5 10 10 8 9 9
31 31 29 28 26 24 22 6 8 2 5 20 15 15 4 19 10 17 27 9 8 11 7 5 15 6 8 8 8 9 6 4 5 5 4 4 7 8 11 7 8 10 12 10 7
33 33 31 30 29 25 26 27 9 16 3 3 16 17 8 11 12 22 21 9 10 13 15 9 4 14 12 10 13 9 7 4 5 5 2 1 8 8 8 12 16 12 11 8 11
34 35 33 32 24 27 23 30 25 5 7 7 6 6 13 5 6 21 27 13 7 17 13 11 9 16 13 16 10 13 7 5 2 2 5 3 7 4 6 10 7 12 13 14 10
34 35 36 35 18 21 23 26 21 6 14 10 11 14 12 7 8 11 29 9 9 8 9 8 14 13 15 11 10 7 8 7 4 2 2 0 4 6 3 5 10 10 10 13 15
33 34 35 33 28 32 24 23 15 12 9 9 10 13 18 20 6 14 17 5 3 6 16 8 7 17 9 12 12 8 7 6 3 3 9 8 7 5 7 14 9 6 6 9 9
35 34 34 33 25 26 32 17 11 21 5 9 13 18 23 18 17 12 22 23 12 9 10 5 2 2 7 8 5 12 10 2 4 4 8 8 8 16 4 7 6 5 3 5 9
34 35 35 33 31 29 33 12 19 18 16 1 12 23 29 23 21 14 20 18 17 10 8 12 10 8 5 7 9 16 13 6 8 5 3 8 9 6 11 7 2 4 8 8 8
31 31 27 35 36 35 10 18 17 13 9 13 14 18 16 21 14 19 16 23 24 19 11 14 10 2 4 4 14 7 9 8 5 3 2 5 6 7 6 8 4 6 7 8 8
31 21 25 31 32 25 10 18 6 7 14 11 17 16 19 26 16 22 13 24 23 21 6 6 4 4 7 3 3 11 7 6 4 4 4 4 4 7 4 10 10 8 8 9 7
22 6 14 28 32 8 10 10 5 5 8 17 11 8 19 16 22 21 15 12 20 25 13 6 4 2 6 10 11 5 7 5 5 5 6 2 6 8 14 7 10 5 10 10 9
7 3 20 31 11 3 9 4 14 5 9 11 7 7 11 21 24 21 26 16 26 22 24 6 4 5 11 2 2 13 13 12 8 12 6 2 7 2 9 8 7 8 9 8 8
7 3 19 28 11 10 2 7 1 11 9 10 7 7 7 16 12 13 22 24 28 23 20 12 5 5 2 1 2 8 13 15 16 3 13 11 12 12 7 6 8 13 11 9 8
4 5 4 6 8 9 5 7 11 4 5 5 11 5 7 13 7 16 17 6 16 23 13 19 6 16 14 18 8 14 23 21 18 13 18 15 20 15 8 7 5 9 12 9 9
2 3 3 6 10 15 5 5 11 9 4 3 5 16 9 8 21 7 13 5 11 24 11 13 15 11 15 1 16 20 22 23 24 24 17 25 18 25 22 10 9 9 6 9 8
5 3 2 3 6 14 15 14 15 15 9 5 7 11 14 10 15 13 20 12 14 14 19 7 10 16 9 4 3 10 16 19 25 27 24 22 19 28 25 6 9 9 9 9 11
3 2 3 10 6 10 12 9 14 19 11 15 15 9 15 18 16 18 15 9 8 16 25 14 9 6 15 7 4 8 17 26 27 26 26 24 32 28 17 9 12 8 14 16 16
Wind_Direction
246 246 249 255 246 243 245 247 244 242 240 241 249 251 260 275 288 287 259 236 236 270 275 312 345 327 330 313 132 36 53 311 331 19 332 134 88 29 150 107 55 48 86 149 155
243 242 244 248 252 244 240 243 247 245 236 234 237 240 246 271 289 260 245 243 241 251 336 316 327 343 0 305 326 103 121 221 21 37 322 215 106 144 90 102 83 71 79 125 150
245 241 241 242 250 248 239 237 242 242 235 228 223 223 225 231 299 244 237 233 238 241 232 283 310 340 253 10 241 199 182 294 39 82 22 328 50 233 130 198 202 179 165 154 157
242 244 243 241 242 244 244 242 235 239 238 225 216 210 197 182 217 309 292 231 224 231 214 214 207 147 190 216 233 215 272 278 306 69 48 20 312 354 53 160 292 171 163 159 170
244 241 244 243 243 245 247 244 231 233 234 224 211 201 176 198 237 199 25 195 198 202 210 211 181 173 183 218 275 235 246 311 77 55 106 39 319 285 302 280 56 133 153 169 179
240 241 240 241 245 243 245 244 240 226 230 225 211 200 189 220 229 219 264 68 144 172 210 217 213 218 230 243 153 304 125 249 345 208 169 160 266 24 257 284 251 142 179 186 189
241 243 240 240 241 243 242 240 243 240 226 223 212 203 221 215 182 202 229 201 164 190 194 233 282 28 188 311 291 86 42 8 307 224 206 152 295 239 231 279 275 198 201 192 205
233 240 242 243 239 240 244 241 238 238 221 218 210 209 234 226 211 163 170 163 175 183 236 253 66 46 22 253 28 110 66 94 261 197 226 122 260 254 247 242 252 248 217 221 214
232 236 237 238 238 239 236 240 236 233 226 209 190 198 234 212 209 212 170 174 176 185 167 113 93 155 61 128 61 345 170 193 276 227 220 168 241 251 248 252 258 271 248 228 232
229 230 234 233 232 232 227 228 235 236 227 204 170 149 260 196 181 194 182 162 144 134 69 107 129 155 157 144 192 168 184 241 215 259 198 211 233 253 268 305 277 278 269 234 225
226 224 227 230 226 223 213 192 195 218 217 217 177 183 302 185 178 180 180 166 145 163 168 199 173 199 182 184 195 169 185 209 245 245 213 227 219 249 254 251 270 274 261 263 262
222 222 219 220 222 217 208 212 214 36 215 236 181 198 38 163 170 177 176 162 180 188 155 166 217 184 171 195 203 237 237 247 285 278 188 263 263 245 272 251 224 247 256 239 243
220 219 216 214 219 214 207 218 223 242 267 235 185 192 200 176 186 187 174 171 183 193 190 199 184 170 194 189 206 218 215 185 233 323 289 308 268 244 249 258 255 240 246 239 217
220 215 212 209 208 210 214 219 224 292 238 208 184 186 193 222 232 185 191 175 187 198 177 223 219 192 187 206 187 214 183 203 189 122 235 60 288 276 269 267 246 245 233 232 230
218 213 208 202 198 195 211 206 214 231 224 192 161 162 164 188 144 198 181 215 179 163 175 200 179 195 210 196 173 210 171 188 176 191 6 262 313 271 251 280 268 249 240 222 225
217 208 203 203 199 212 193 186 179 220 218 152 141 163 156 208 252 149 175 178 153 168 201 210 193 191 180 185 183 150 90 46 66 87 257 204 197 211 216 231 254 262 253 218 217
209 206 199 197 202 194 183 165 205 216 144 171 164 167 171 184 214 179 186 193 186 173 198 203 204 296 151 150 145 168 140 123 204 214 235 189 196 255 275 269 223 172 136 115 122
202 195 196 206 200 187 180 200 219 204 202 148 163 178 189 169 201 200 186 193 207 193 164 184 213 183 186 173 176 184 177 161 190 204 225 146 229 249 219 236 143 212 152 121 121
197 196 194 202 200 188 197 209 208 182 164 173 165 179 187 184 173 191 202 197 190 193 177 190 224 127 168 148 155 189 201 175 111 24 66 219 298 315 254 256 228 178 135 140 139
186 184 197 197 193 186 214 222 209 194 173 180 181 177 186 184 174 184 186 199 193 194 179 196 152 198 192 129 212 175 140 195 193 166 245 263 247 229 236 227 249 222 203 169 164
167 172 194 188 184 201 217 211 198 234 187 184 199 169 196 183 192 189 189 180 190 190 204 171 116 176 136 211 171 145 186 200 160 174 198 233 249 208 212 204 208 185 162 167 170
146 172 168 171 197 209 214 166 205 256 216 205 194 175 185 184 200 192 202 190 198 182 200 188 100 166 195 17 325 203 196 189 197 215 220 185 258 239 150 159 144 166 176 182 170
157 115 166 165 203 200 215 162 261 190 226 205 210 193 170 180 189 184 200 201 191 182 190 170 178 134 145 302 316 209 207 206 227 112 205 209 246 237 201 201 190 174 193 182 161
134 163 165 183 205 215 196 199 206 271 213 276 217 224 188 185 212 185 197 186 190 196 189 168 161 204 202 214 150 196 215 216 215 226 227 222 244 242 251 192 196 193 189 180 181
116 208 178 162 192 206 220 13 207 216 210 197 264 210 228 185 201 184 185 132 177 199 189 167 216 197 223 148 189 200 207 206 211 222 215 231 225 249 238 204 203 197 171 176 183
139 137 136 100 141 197 211 225 231 210 174 217 248 199 207 235 207 188 178 173 185 189 188 195 217 211 212 149 143 216 212 205 217 226 229 241 242 242 252 179 212 206 176 186 209
96 77 110 158 168 185 213 214 223 199 216 220 229 212 233 216 227 270 198 188 176 178 188 184 195 167 227 182 108 247 208 212 217 225 219 224 232 240 251 197 208 194 186 210 216